| time (UTC) | temp F | wind direction | speed knots | gust knots | rain 1hr in | rain 24hr in | rain mn in | humidity % | barometer mb |
| 20260901154538 | 84 | 174 | 0.0 | 2.6 | 0.00 | 0.00 | 0.00 | 76 | 1012.3 |
| 20260901153019 | 83 | 115 | 0.9 | 2.6 | 0.00 | 0.00 | 0.00 | 78 | 1012.3 |
| 20260901151518 | 82 | 150 | 0.0 | 1.7 | 0.00 | 0.00 | 0.00 | 78 | 1012.3 |
| 20260901150100 | 81 | 160 | 1.7 | 3.5 | 0.00 | 0.00 | 0.00 | 80 | 1012.4 |
| 20260901144600 | 79 | 205 | 1.7 | 3.5 | 0.00 | 0.00 | 0.00 | 82 | 1012.3 |
| 20260901143043 | 78 | 157 | 0.9 | 3.5 | 0.00 | 0.00 | 0.00 | 84 | 1012.4 |
| 20260901141543 | 77 | 147 | 0.9 | 3.5 | 0.00 | 0.00 | 0.00 | 84 | 1012.6 |
| 20260901140028 | 76 | 132 | 1.7 | 3.5 | 0.00 | 0.00 | 0.00 | 84 | 1012.7 |
| 20260901134522 | 75 | 209 | 0.0 | 0.0 | 0.00 | 0.00 | 0.00 | 87 | 1013.0 |
| 20260901133003 | 70 | 209 | 0.0 | 0.0 | 0.00 | 0.00 | 0.00 | 82 | 1013.1 |
| 20260901131507 | 69 | 209 | 0.0 | 0.0 | 0.00 | 0.00 | 0.00 | 79 | 1012.9 |
| 20260901130056 | 0 | 0.0 | 0.0 | 0.00 | 0.00 | 0.00 | 1012.9 | ||
| 20260901124539 | 0 | 0.0 | 0.0 | 0.00 | 0.00 | 0.00 | 1012.8 | ||
| 20260901123018 | 0 | 0.0 | 0.0 | 0.00 | 0.00 | 0.00 | 1012.8 | ||
| 20260901121517 | 0 | 0.0 | 0.0 | 0.00 | 0.00 | 0.00 | 1012.6 | ||
| 20260901120058 | 0 | 0.0 | 0.0 | 0.00 | 0.00 | 0.00 | 1012.4 | ||
| 20260901114555 | 0 | 0.0 | 0.0 | 0.00 | 0.00 | 0.00 | 1012.4 | ||
| 20260901113056 | 0 | 0.0 | 0.0 | 0.00 | 0.00 | 0.00 | 1012.0 | ||
| 20260901111545 | 0 | 0.0 | 0.0 | 0.00 | 0.00 | 0.00 | 1012.1 | ||
| 20260901110040 | 0 | 0.0 | 0.0 | 0.00 | 0.00 | 0.00 | 1011.8 | ||
| 20260901104536 | 0 | 0.0 | 0.0 | 0.00 | 0.00 | 0.00 | 1012.0 | ||
| 20260901103032 | 0 | 0.0 | 0.0 | 0.00 | 0.00 | 0.00 | 1011.9 | ||
| 20260901101528 | 0 | 0.0 | 0.0 | 0.00 | 0.00 | 0.00 | 1011.7 | ||
| 20260901100009 | 65 | 202 | 0.0 | 0.0 | 0.00 | 0.00 | 0.00 | 59 | 1011.8 |
| 20260901094507 | 66 | 194 | 0.0 | 0.9 | 0.00 | 0.00 | 0.00 | 58 | 1011.8 |
| 20260901093106 | 66 | 194 | 0.0 | 0.9 | 0.00 | 0.00 | 0.00 | 56 | 1011.8 |
| 20260901091549 | 66 | 195 | 0.0 | 2.6 | 0.00 | 0.00 | 0.00 | 59 | 1011.7 |
| 20260901090049 | 66 | 205 | 0.9 | 2.6 | 0.00 | 0.00 | 0.00 | 60 | 1011.8 |
| 20260901084532 | 67 | 204 | 1.7 | 3.5 | 0.00 | 0.00 | 0.00 | 58 | 1011.8 |
| 20260901083035 | 66 | 178 | 0.0 | 0.9 | 0.00 | 0.00 | 0.00 | 55 | 1011.7 |
| 20260901081515 | 66 | 178 | 0.0 | 1.7 | 0.00 | 0.00 | 0.00 | 57 | 1011.5 |
| 20260901080010 | 66 | 209 | 0.9 | 2.6 | 0.00 | 0.00 | 0.00 | 57 | 1011.8 |
| 20260901074552 | 66 | 188 | 0.9 | 2.6 | 0.00 | 0.00 | 0.00 | 65 | 1011.8 |
| 20260901073051 | 66 | 158 | 0.9 | 1.7 | 0.00 | 0.00 | 0.00 | 62 | 1011.8 |
| 20260901071535 | 67 | 155 | 0.9 | 1.7 | 0.00 | 0.00 | 0.00 | 61 | 1011.8 |
| 20260901070032 | 67 | 154 | 0.0 | 0.9 | 0.00 | 0.00 | 0.00 | 56 | 1011.9 |
| 20260901064523 | 67 | 153 | 0.9 | 1.7 | 0.00 | 0.00 | 0.00 | 62 | 1012.1 |
| 20260901063011 | 66 | 154 | 0.0 | 1.7 | 0.00 | 0.00 | 0.00 | 70 | 1012.1 |
| 20260901061554 | 68 | 311 | 0.0 | 0.9 | 0.00 | 0.00 | 0.00 | 77 | 1012.2 |
| 20260901060050 | 68 | 311 | 0.0 | 0.0 | 0.00 | 0.00 | 0.00 | 76 | 1012.3 |
| 20260901054533 | 68 | 311 | 0.0 | 0.0 | 0.00 | 0.00 | 0.00 | 85 | 1012.1 |
| 20260901053026 | 69 | 311 | 0.0 | 0.0 | 0.00 | 0.00 | 0.00 | 82 | 1011.8 |
| 20260901051510 | 69 | 311 | 0.0 | 0.9 | 0.00 | 0.00 | 0.00 | 82 | 1011.7 |
| 20260901050006 | 70 | 311 | 0.0 | 0.9 | 0.00 | 0.00 | 0.00 | 83 | 1011.6 |
| 20260901044546 | 70 | 321 | 0.9 | 0.9 | 0.00 | 0.00 | 0.00 | 86 | 1011.5 |
| 20260901043044 | 70 | 321 | 0.0 | 0.0 | 0.00 | 0.00 | 0.00 | 86 | 1011.3 |
| 20260901041526 | 71 | 321 | 0.0 | 0.0 | 0.00 | 0.00 | 0.00 | 87 | 1011.3 |
| 20260901040022 | 71 | 321 | 0.0 | 0.0 | 0.00 | 0.00 | 0.00 | 87 | 1011.2 |
| 20260901034506 | 72 | 321 | 0.0 | 0.0 | 0.00 | 0.00 | 0.00 | 87 | 1011.2 |
| 20260901033003 | 72 | 321 | 0.0 | 0.9 | 0.00 | 0.00 | 0.00 | 87 | 1011.3 |
| 20260901031553 | 72 | 321 | 0.0 | 0.0 | 0.00 | 0.00 | 0.00 | 86 | 1011.2 |
| 20260901030040 | 73 | 322 | 0.0 | 0.0 | 0.00 | 0.00 | 0.00 | 86 | 1011.1 |
| 20260901024525 | 74 | 322 | 0.0 | 0.0 | 0.00 | 0.00 | 0.00 | 84 | 1011.0 |
| 20260901023018 | 75 | 322 | 0.0 | 0.0 | 0.00 | 0.00 | 0.00 | 83 | 1010.9 |
| 20260901021600 | 75 | 322 | 1.7 | 2.6 | 0.00 | 0.00 | 0.00 | 84 | 1011.0 |
| 20260901021503 | 75 | 321 | 1.7 | 2.6 | 0.00 | 0.00 | 0.00 | 84 | 1010.9 |
| 20260901020100 | 75 | 321 | 0.0 | 0.0 | 0.00 | 0.00 | 0.00 | 82 | 1010.8 |
| 20260901014537 | 77 | 323 | 2.6 | 4.3 | 0.00 | 0.00 | 0.00 | 79 | 1010.6 |
| 20260901013035 | 76 | 331 | 0.0 | 0.9 | 0.00 | 0.00 | 0.00 | 83 | 1010.6 |
| 20260901011513 | 77 | 331 | 0.0 | 0.9 | 0.00 | 0.00 | 0.00 | 79 | 1010.3 |
| 20260901010022 | 78 | 331 | 0.0 | 0.9 | 0.00 | 0.00 | 0.00 | 76 | 1010.1 |
| 20260901004551 | 80 | 331 | 0.9 | 3.5 | 0.00 | 0.00 | 0.00 | 71 | 1010.1 |
| 20260901003049 | 82 | 328 | 0.0 | 2.6 | 0.00 | 0.00 | 0.00 | 69 | 1010.1 |
| 20260901001529 | 84 | 326 | 0.0 | 1.7 | 0.00 | 0.00 | 0.00 | 69 | 1010.0 |
| 20260901000029 | 85 | 328 | 0.0 | 2.6 | 0.00 | 0.00 | 0.00 | 67 | 1010.0 |
| 20260831234511 | 86 | 328 | 0.9 | 2.6 | 0.00 | 0.00 | 0.00 | 66 | 1010.2 |
| 20260831233009 | 89 | 317 | 0.0 | 2.6 | 0.00 | 0.00 | 0.00 | 63 | 1010.1 |
| 20260831231556 | 88 | 295 | 0.0 | 0.9 | 0.00 | 0.00 | 0.00 | 61 | 1010.1 |
| 20260831230114 | 88 | 330 | 0.0 | 2.6 | 0.00 | 0.00 | 0.00 | 59 | 1010.0 |
| 20260831224531 | 89 | 323 | 0.9 | 1.7 | 0.00 | 0.00 | 0.00 | 59 | 1009.9 |
| 20260831223029 | 88 | 286 | 0.0 | 0.9 | 0.00 | 0.00 | 0.00 | 64 | 1009.9 |
| 20260831221523 | 89 | 288 | 1.7 | 2.6 | 0.00 | 0.00 | 0.00 | 57 | 1009.8 |
| 20260831220011 | 88 | 291 | 0.0 | 4.3 | 0.00 | 0.00 | 0.00 | 62 | 1009.8 |
| 20260831214551 | 89 | 266 | 0.9 | 3.5 | 0.00 | 0.00 | 0.00 | 58 | 1009.8 |
| 20260831213054 | 88 | 319 | 0.0 | 3.5 | 0.00 | 0.00 | 0.00 | 60 | 1009.8 |
| 20260831211529 | 87 | 319 | 0.9 | 4.3 | 0.00 | 0.00 | 0.00 | 63 | 1009.7 |
| 20260831210026 | 87 | 322 | 0.9 | 3.5 | 0.00 | 0.00 | 0.00 | 64 | 1009.7 |
| 20260831204507 | 85 | 259 | 0.9 | 3.5 | 0.00 | 0.00 | 0.00 | 74 | 1009.7 |
| 20260831203003 | 85 | 294 | 0.9 | 3.5 | 0.00 | 0.00 | 0.00 | 75 | 1009.6 |
| 20260831201545 | 84 | 304 | 0.0 | 3.5 | 0.00 | 0.00 | 0.00 | 75 | 1009.6 |
| 20260831200040 | 83 | 323 | 2.6 | 7.0 | 0.00 | 0.00 | 0.00 | 77 | 1009.4 |
| 20260831194537 | 82 | 322 | 1.7 | 7.8 | 0.00 | 0.00 | 0.00 | 81 | 1009.6 |
| 20260831193016 | 81 | 321 | 2.6 | 6.1 | 0.00 | 0.00 | 0.00 | 86 | 1009.3 |
| 20260831191556 | 80 | 268 | 1.7 | 6.1 | 0.00 | 0.00 | 0.00 | 87 | 1009.2 |
| 20260831190106 | 80 | 335 | 0.9 | 7.8 | 0.00 | 0.00 | 0.00 | 87 | 1009.0 |
| 20260831184544 | 80 | 322 | 2.6 | 6.1 | 0.00 | 0.00 | 0.00 | 86 | 1008.9 |
| 20260831183034 | 80 | 328 | 4.3 | 7.8 | 0.00 | 0.00 | 0.00 | 86 | 1009.0 |
| 20260831181521 | 81 | 319 | 0.9 | 7.8 | 0.00 | 0.00 | 0.00 | 86 | 1009.0 |
| 20260831180011 | 80 | 318 | 1.7 | 7.8 | 0.00 | 0.00 | 0.00 | 87 | 1009.1 |
| 20260831174557 | 80 | 324 | 3.5 | 7.0 | 0.00 | 0.00 | 0.00 | 87 | 1009.3 |
| 20260831173047 | 79 | 319 | 2.6 | 5.2 | 0.00 | 0.00 | 0.00 | 87 | 1009.5 |
| 20260831171542 | 79 | 326 | 0.9 | 4.3 | 0.00 | 0.00 | 0.00 | 87 | 1009.6 |
| 20260831170105 | 79 | 290 | 0.0 | 1.7 | 0.00 | 0.00 | 0.00 | 87 | 1009.7 |
| 20260831164534 | 78 | 293 | 0.0 | 4.3 | 0.00 | 0.00 | 0.00 | 87 | 1009.5 |
| 20260831163033 | 78 | 304 | 0.0 | 3.5 | 0.00 | 0.00 | 0.00 | 87 | 1009.4 |
| 20260831161528 | 78 | 344 | 1.7 | 3.5 | 0.00 | 0.00 | 0.00 | 87 | 1009.1 |
| 20260831160032 | 77 | 289 | 0.9 | 4.3 | 0.00 | 0.00 | 0.00 | 87 | 1009.3 |